Vorticity
4 8 5 5 4 4 8 5 7 6 6 11 11 9 5 15 11 13 8 6 2 8 7 6 5 6 6 7 6 5 7 5 6 8 8 9 7 2 4 3 2 3 6
5 6 3 6 5 4 4 6 5 8 8 6 6 8 11 6 15 15 16 10 9 9 8 7 9 7 1 6 5 6 6 5 7 7 8 6 5 3 4 3 3 6 8
5 8 5 6 5 6 9 10 10 8 7 9 6 6 3 9 9 23 8 -4 -4 11 9 9 7 6 6 5 5 4 5 7 8 9 7 7 4 -10 5 5 10 6 8
6 7 6 5 4 5 11 13 9 7 11 8 7 7 6 4 6 12 4 7 9 7 7 8 6 11 6 6 5 4 6 7 7 7 7 5 -13 13 2 10 4 9 9
5 6 6 5 5 9 13 10 9 8 9 0 4 8 5 7 10 7 9 15 18 11 8 6 10 7 1 5 4 5 7 6 6 8 7 4 2 2 10 6 7 10 9
5 6 5 6 7 8 9 9 9 7 2 -1 5 11 18 -2 12 6 14 3 6 -12 6 -2 -1 7 5 8 5 3 7 6 7 6 11 -5 11 12 3 8 8 8 7
7 7 8 7 8 10 8 6 5 4 5 6 7 7 7 20 -4 12 -1 12 18 10 10 8 15 5 -2 7 8 5 6 7 7 7 -4 9 7 3 7 7 8 10 10
5 6 2 8 10 10 10 13 11 6 6 5 4 3 11 18 38 -1 7 0 12 9 -10 11 8 11 3 5 11 12 4 6 5 2 1 5 6 8 6 11 6 10 7
6 8 3 4 13 10 8 9 7 6 4 8 9 12 5 11 -17 -7 14 24 1 14 11 14 11 7 3 3 6 5 6 11 -1 5 3 7 7 5 11 6 8 9 6
4 3 3 3 15 10 1 6 4 6 5 12 12 13 8 5 11 6 53 -44 3 17 12 13 7 -1 7 -10 19 5 6 1 2 5 3 7 5 8 10 8 8 8 7
5 7 7 4 15 10 -2 5 6 7 8 14 15 8 10 0 23 16 -16 -3 31 38 15 6 6 8 6 16 1 5 4 -2 4 7 5 6 5 7 9 6 6 8 6
4 10 5 5 13 10 7 3 8 8 12 12 7 19 9 14 33 30 14 -15 5 4 12 1 14 7 12 3 7 6 14 -3 3 4 5 4 7 8 8 5 6 5 6
3 6 5 6 12 9 7 4 4 6 8 10 9 27 6 3 4 23 21 -6 36 9 4 16 10 9 12 3 6 -1 6 1 2 5 6 5 9 11 7 6 6 6 6
6 7 8 7 14 12 5 6 3 7 8 10 15 13 18 8 15 8 17 25 6 0 19 6 16 8 5 3 3 -2 1 1 1 6 5 6 7 2 1 2 7 7 8
5 7 6 6 12 9 5 10 5 8 6 13 11 15 6 8 6 7 12 11 6 -6 10 3 10 -1 3 -2 1 5 6 6 4 5 3 6 8 3 3 2 4 3 4
6 5 3 7 11 5 8 7 6 7 6 11 11 12 25 14 19 -1 24 -10 -2 0 8 4 3 3 41 0 8 8 9 5 5 5 -1 5 10 3 1 2 3 3 4
4 7 1 10 12 8 6 8 7 5 9 15 6 21 17 14 -0 20 46 -12 15 2 -1 6 18 16 7 22 32 11 1 6 3 11 2 4 8 6 3 4 7 6 4
8 5 4 17 11 9 6 10 10 7 10 17 -0 23 13 14 7 29 18 18 8 18 7 9 -2 -1 11 7 6 12 5 6 -1 4 1 3 3 4 4 3 2 12 9
7 8 10 13 16 5 10 12 16 22 19 17 22 10 7 10 13 39 7 1 -6 12 -1 -4 2 2 15 6 9 19 12 7 3 3 5 2 1 2 3 4 7 5 7
8 10 17 11 4 8 10 14 20 11 -9 23 18 5 13 1 30 43 -3 6 2 1 9 10 15 10 5 0 17 0 3 -5 4 5 3 5 1 2 3 4 1 5 5
8 16 10 5 7 8 12 14 14 5 9 -16 23 22 9 2 51 21 -3 1 7 16 4 12 10 1 14 11 10 8 13 11 7 7 1 5 4 1 3 2 9 3 6
6 16 6 4 9 6 10 15 14 14 -0 20 41 3 5 32 23 7 7 -1 10 8 6 1 1 5 14 0 -6 6 6 9 9 15 13 4 3 5 0 -2 6 -0 2
13 9 3 7 9 7 10 16 11 12 13 8 40 9 8 46 7 0 -11 6 5 -3 2 2 -8 -5 -4 12 10 9 4 7 11 12 14 18 5 3 4 7 13 16 2
14 7 6 9 6 7 8 15 14 16 7 18 11 1 20 14 4 11 3 0 8 -6 -4 11 8 5 -2 22 17 4 8 10 14 10 21 14 8 11 10 6 8 8 7
13 3 6 8 9 8 6 13 16 5 7 9 28 33 -1 32 -8 -4 -6 10 1 -6 5 1 10 13 14 8 12 5 5 6 5 7 7 8 -7 5 6 8 7 7 12
11 4 4 8 7 9 6 8 10 15 11 7 10 30 14 -6 17 22 -13 9 -12 6 2 5 6 12 4 6 8 4 6 7 9 8 -2 8 3 21 18 10 10 9 13
Height
5814 5812 5812 5811 5810 5810 5810 5809 5809 5810 5809 5807 5807 5807 5808 5810 5811 5813 5816 5819 5821 5825 5827 5829 5832 5834 5837 5839 5841 5843 5846 5847 5849 5850 5851 5852 5853 5854 5855 5855 5855 5855 5854
5809 5807 5807 5807 5807 5806 5805 5805 5804 5804 5804 5803 5803 5803 5803 5805 5807 5809 5812 5814 5817 5821 5824 5827 5829 5832 5834 5836 5839 5841 5843 5845 5847 5848 5850 5852 5852 5853 5854 5855 5854 5853 5853
5804 5802 5802 5802 5802 5801 5800 5800 5799 5799 5798 5798 5797 5798 5798 5800 5801 5803 5807 5811 5813 5816 5820 5823 5826 5829 5832 5835 5837 5840 5841 5843 5845 5847 5848 5850 5851 5852 5853 5853 5852 5852 5852
5799 5797 5797 5797 5796 5796 5795 5795 5794 5793 5792 5793 5793 5794 5795 5796 5798 5799 5804 5807 5809 5811 5814 5818 5822 5826 5829 5832 5835 5837 5839 5841 5843 5845 5847 5848 5850 5850 5850 5850 5850 5850 5850
5795 5792 5790 5790 5791 5791 5790 5789 5789 5787 5789 5789 5789 5789 5789 5790 5793 5795 5797 5801 5804 5807 5810 5814 5818 5822 5826 5829 5831 5833 5836 5839 5841 5843 5845 5847 5848 5849 5848 5849 5848 5848 5849
5791 5788 5787 5786 5785 5785 5785 5784 5782 5784 5785 5784 5784 5785 5784 5786 5788 5791 5792 5795 5799 5802 5806 5811 5815 5819 5823 5826 5828 5832 5835 5837 5839 5841 5843 5845 5846 5846 5847 5847 5847 5847 5847
5785 5784 5783 5781 5779 5779 5780 5779 5777 5778 5778 5779 5780 5779 5779 5782 5783 5785 5788 5792 5795 5797 5802 5807 5812 5815 5819 5823 5825 5829 5832 5836 5837 5839 5841 5843 5844 5844 5844 5845 5845 5845 5846
5780 5779 5779 5778 5776 5774 5773 5774 5774 5773 5772 5773 5774 5774 5776 5777 5775 5781 5784 5787 5790 5794 5798 5803 5807 5811 5814 5818 5822 5825 5829 5833 5835 5838 5839 5840 5841 5841 5842 5843 5843 5843 5844
5776 5773 5773 5775 5773 5771 5769 5769 5768 5767 5767 5768 5767 5769 5770 5771 5774 5776 5779 5780 5785 5790 5795 5798 5801 5806 5810 5814 5819 5824 5827 5830 5833 5835 5836 5837 5838 5839 5840 5841 5841 5842 5842
5770 5767 5767 5767 5769 5766 5765 5765 5763 5762 5762 5761 5761 5761 5761 5764 5766 5771 5773 5775 5779 5783 5791 5794 5797 5801 5804 5809 5814 5819 5824 5827 5830 5831 5833 5834 5836 5836 5838 5839 5839 5839 5840
5764 5763 5762 5761 5762 5762 5760 5759 5758 5755 5756 5755 5755 5755 5755 5758 5760 5764 5770 5773 5774 5776 5783 5789 5792 5795 5800 5806 5812 5817 5821 5824 5826 5827 5829 5831 5833 5834 5835 5836 5836 5837 5837
5759 5757 5756 5756 5755 5755 5755 5753 5752 5749 5749 5748 5748 5748 5748 5750 5753 5759 5763 5768 5773 5774 5779 5785 5788 5793 5798 5803 5809 5813 5816 5819 5822 5824 5827 5829 5830 5830 5832 5832 5832 5834 5835
5754 5752 5750 5750 5748 5748 5748 5746 5744 5743 5741 5741 5741 5740 5743 5746 5749 5753 5756 5761 5766 5770 5774 5780 5784 5788 5792 5798 5803 5808 5811 5815 5818 5821 5824 5825 5826 5827 5828 5829 5830 5830 5831
5748 5746 5744 5743 5743 5742 5742 5741 5739 5736 5736 5735 5731 5732 5737 5741 5744 5747 5750 5756 5762 5768 5771 5777 5781 5784 5787 5793 5799 5802 5806 5809 5814 5818 5820 5821 5823 5824 5825 5826 5827 5828 5828
5741 5740 5738 5737 5736 5736 5736 5735 5733 5731 5731 5729 5729 5730 5732 5735 5739 5742 5745 5752 5758 5766 5767 5773 5776 5779 5784 5790 5795 5798 5801 5805 5809 5813 5816 5817 5819 5821 5822 5824 5824 5824 5825
5734 5733 5732 5731 5730 5730 5729 5728 5727 5724 5724 5723 5723 5723 5724 5729 5732 5736 5741 5748 5755 5760 5765 5769 5773 5776 5777 5785 5788 5793 5797 5801 5804 5808 5811 5813 5815 5816 5818 5819 5820 5821 5821
5728 5726 5726 5724 5724 5724 5723 5722 5720 5717 5718 5717 5716 5718 5719 5724 5727 5731 5734 5743 5751 5756 5762 5766 5768 5771 5776 5780 5784 5788 5792 5796 5799 5803 5805 5808 5810 5812 5813 5815 5816 5816 5816
5722 5720 5719 5718 5718 5718 5717 5715 5712 5710 5711 5710 5709 5711 5714 5719 5723 5727 5732 5739 5746 5754 5760 5762 5765 5769 5772 5774 5780 5784 5786 5789 5795 5798 5800 5803 5805 5807 5809 5810 5811 5811 5811
5715 5715 5713 5713 5713 5712 5710 5708 5705 5703 5704 5703 5703 5706 5709 5714 5718 5723 5728 5735 5742 5750 5755 5759 5762 5765 5767 5771 5776 5778 5781 5786 5790 5792 5794 5796 5799 5802 5804 5806 5806 5806 5806
5709 5709 5708 5707 5707 5706 5704 5701 5699 5699 5699 5698 5699 5700 5703 5706 5712 5717 5724 5732 5738 5745 5751 5755 5758 5761 5763 5766 5770 5772 5777 5781 5784 5787 5789 5791 5793 5796 5798 5799 5801 5801 5801
5703 5703 5701 5702 5701 5701 5699 5696 5695 5695 5694 5693 5693 5695 5698 5701 5706 5713 5721 5728 5734 5742 5746 5750 5755 5757 5760 5763 5767 5770 5774 5776 5778 5780 5783 5785 5787 5789 5791 5792 5793 5794 5794
5697 5697 5697 5697 5698 5696 5694 5692 5691 5691 5690 5688 5688 5692 5693 5696 5703 5711 5718 5727 5729 5735 5741 5747 5751 5754 5758 5760 5762 5764 5766 5770 5771 5774 5777 5779 5779 5780 5783 5784 5786 5787 5787
5691 5691 5692 5692 5693 5692 5690 5688 5688 5686 5685 5684 5683 5687 5690 5691 5698 5707 5716 5722 5728 5730 5736 5742 5746 5750 5753 5754 5756 5759 5763 5765 5763 5765 5769 5771 5773 5773 5775 5777 5777 5778 5778
5685 5686 5687 5689 5689 5689 5687 5685 5684 5682 5681 5680 5680 5685 5690 5694 5699 5706 5713 5718 5723 5728 5733 5736 5740 5744 5747 5749 5750 5753 5754 5758 5757 5760 5761 5765 5766 5768 5767 5767 5769 5769 5768
5679 5682 5683 5685 5686 5686 5684 5683 5682 5680 5679 5678 5679 5682 5688 5693 5698 5704 5709 5715 5719 5724 5728 5732 5734 5737 5741 5743 5745 5746 5747 5749 5751 5753 5756 5758 5757 5758 5757 5759 5759 5759 5759
5674 5678 5680 5681 5683 5683 5682 5682 5681 5680 5679 5678 5679 5681 5686 5691 5697 5702 5708 5713 5717 5720 5723 5726 5729 5730 5734 5737 5740 5741 5742 5744 5744 5746 5748 5747 5748 5748 5749 5750 5751 5751 5751